Regional Weather Roundup
Issued by NWS

Home | Current Version | Previous Version | Text Only | Print | Product List | Glossary Off
Versions: 1 2 3 4 5 6 7 8 9 10 11 12 13 14 15 16 17 18 19 20 21 22 23 24 25 26 27 28 29 30 31 32 33 34 35 36 37 38 39 40 41 42 43 44 45 46 47 48 49 50

000
ASUS43 KOAX 061502
RWRNE

WEATHER ROUNDUP FOR NEBRASKA
NATIONAL WEATHER SERVICE OMAHA NE
900 AM CST TUE DEC 06 2016

NOTES: SATELLITE DATA IS BEING USED TO AUGMENT CLOUD COVER ABOVE
       12000 FEET.
       "FAIR" INDICATES FEW OR NO CLOUDS BELOW 12,000 FEET WITH NO
       SIGNIFICANT WEATHER AND/OR OBSTRUCTIONS TO VISIBILITY.

  * THESE STATIONS DO NOT REPORT WEATHER SUCH AS RAIN...SNOW OR FOG.

NEZ001>004-019>022-054>056-061600-
NEBRASKA PANHANDLE

CITY           SKY/WX    TMP DP  RH WIND       PRES   REMARKS
SCOTTSBLUFF    CLEAR      9   2  73 NW7       29.99R WCI  -2
ALLIANCE       CLEAR      1  -4  79 W5        29.98R WCI  -9
CHADRON        CLEAR     12   3  67 W16       30.02R WCI  -5
KIMBALL        CLEAR     13   1  60 W13       29.94R WCI  -2
SIDNEY         CLEAR     10   1  67 W14       29.97R WCI  -6
$$

NEZ057>060-069>072-079>082-061600-
SOUTHWEST NEBRASKA

CITY           SKY/WX    TMP DP  RH WIND       PRES   REMARKS
NORTH PLATTE   CLEAR     17   9  70 W9        30.02R WCI   6
IMPERIAL       CLEAR     13   3  64 W12       30.04R WCI  -1
LEXINGTON      SUNNY     19  11  70 NW6       30.04R WCI  11
MCCOOK         PTCLDY    19   8  62 W12       30.07R WCI   7
OGALLALA       CLEAR     11   5  75 W10       30.02S WCI  -2
$$

NEZ005>010-023>029-035>040-094-061600-
NORTH CENTRAL NEBRASKA

CITY           SKY/WX    TMP DP  RH WIND       PRES   REMARKS
VALENTINE      CLEAR     12   3  67 W10       29.99R WCI  -1
AINSWORTH      CLEAR     14   7  72 NW14      29.98R WCI  -1
BROKEN BOW     CLEAR     20   9  62 W14       29.99R WCI   7
ORD            CLEAR     18  10  71 W7        30.00R WCI   9
$$

NEZ041-046>049-061>064-073>077-083>087-061600-
SOUTH CENTRAL NEBRASKA

CITY           SKY/WX    TMP DP  RH WIND       PRES   REMARKS
GRAND ISLAND   SUNNY     21  14  74 W10       30.04R WCI  10
AURORA         SUNNY     23  15  71 NW14      30.03R WCI  10
HASTINGS       SUNNY     22  14  71 NW17      30.05R WCI   8
HEBRON         SUNNY     24  15  69 NW8       30.06R WCI  15
HOLDREGE       SUNNY     22  10  61 W12       30.04S WCI  10
KEARNEY *      SUNNY     19   9  63 W10       30.04R WCI   8
YORK           SUNNY     23  14  68 NW17      30.03R WCI   9
$$

NEZ011>018-030>034-042>045-061600-
NORTHEAST NEBRASKA

CITY           SKY/WX    TMP DP  RH WIND       PRES   REMARKS
NORFOLK        SUNNY     21   6  52 W25G36    29.96S WCI   4
ALBION         SUNNY     22   7  51 NW15G22   30.00R WCI   9
BLAIR          SUNNY     23  13  67 W8G16     29.99R WCI  14
FREMONT        SUNNY     23  13  66 W17       30.01R WCI   9
TEKAMAH        SUNNY     23  13  65 W10       30.00R WCI  12
WAYNE          SUNNY     21  10  61 W21G28    29.96R WCI   5
$$

NEZ050>053-065>068-078-088>093-061600-
SOUTHEAST NEBRASKA

CITY           SKY/WX    TMP DP  RH WIND       PRES   REMARKS
LINCOLN        SUNNY     26  11  52 NW15      30.04R WCI  14
OMAHA EPPLEY   SUNNY     24  11  57 NW9       30.01S WCI  14
BEATRICE       SUNNY     26  15  64 NW9       30.05R WCI  17
FALLS CITY     SUNNY     27  13  55 NW17G28   30.04R WCI  14
NEBRASKA CITY  MOSUNNY   26  11  53 NW14G20   30.02R WCI  14
$$

NEZ044-045-051>053-067-061600-
OMAHA AREA

CITY           SKY/WX    TMP DP  RH WIND       PRES   REMARKS
OMAHA EPPLEY   SUNNY     24  11  57 NW9       30.01S WCI  14
BLAIR          SUNNY     23  13  67 W8G16     29.99R WCI  14
FREMONT        SUNNY     23  13  66 W17       30.01R WCI   9
MILLARD        SUNNY     25  13  60 W13       30.02R WCI  14
OFFUTT AFB     SUNNY     24  13  61 NW13      30.02R WCI  13
WAHOO          FAIR      25  13  59 W18G24    30.02R WCI  11
$$




USA.gov is the U.S. government's official web portal to all federal, state and local government web resources and services.